Terminal Aerodrome Forecast
Issued by NWS Buffalo, NY

Home | Current Version | Previous Version | Text Only | Print | Product List | Glossary On
Versions: 1 2 3 4 5 6 7 8 9 10 11 12 13 14 15 16 17 18 19 20 21 22 23
000
FTUS41 KBUF 230301 AAA
TAFROC
TAF AMD
KROC 230301Z 2303/2324 24009KT P6SM SCT250
     FM230900 20006KT P6SM SCT050
     FM231500 21007KT P6SM BKN050
     FM231900 27006KT P6SM BKN050
     FM232100 04008KT P6SM BKN060=

USA.gov is the U.S. government's official web portal to all federal, state and local government web resources and services.